CW9181 Weather Reports


time (UTC)temp
C
wind
direction
speed
KPH
gust
KPH
rain 1hr
cm
rain 24hr
cm
rain mn
cm
humidity
%
barometer
mb
20260906013017 28 189 1.6 9.7 0.00 0.03 0.03 34 1012.5
20260906012010 28 241 6.4 12.9 0.00 0.03 0.03 33 1012.5
20260906011008 28 169 8.0 12.9 0.00 0.03 0.03 34 1012.6
20260906010009 28 176 3.2 12.9 0.00 0.03 0.03 34 1012.6
20260906005009 28 193 4.8 17.7 0.00 0.03 0.03 33 1012.6
20260906004044 28 216 3.2 16.1 0.00 0.03 0.03 34 1012.5
20260906003033 28 24 1.6 14.5 0.00 0.03 0.03 31 1012.6
20260906002006 28 216 8.0 17.7 0.00 0.03 0.03 32 1012.5
20260906001026 28 189 8.0 14.5 0.00 0.03 0.03 34 1012.6
20260906000023 28 162 6.4 12.9 0.00 0.03 0.03 33 1012.6
20260905235023 28 186 4.8 11.3 0.00 0.03 0.03 33 1012.7
20260905234020 28 316 3.2 9.7 0.00 0.03 0.03 32 1012.7
20260905233016 28 249 3.2 12.9 0.00 0.03 0.03 33 1012.7
20260905232027 28 213 3.2 8.0 0.00 0.03 0.03 33 1012.7
20260905231006 28 177 3.2 12.9 0.00 0.03 0.03 33 1012.8
20260905230047 28 260 3.2 6.4 0.00 0.03 0.03 34 1012.9
20260905225020 27 10 4.8 9.7 0.00 0.03 0.03 34 1013.1
20260905224016 27 341 3.2 12.9 0.00 0.03 0.03 35 1013.2
20260905223019 27 247 4.8 9.7 0.00 0.03 0.03 36 1013.2
20260905222013 27 265 1.6 12.9 0.00 0.03 0.03 35 1013.2
20260905221011 26 168 6.4 12.9 0.00 0.03 0.03 37 1013.3
20260905220010 26 241 4.8 9.7 0.00 0.03 0.03 37 1013.3
20260905215021 26 260 6.4 14.5 0.00 0.03 0.03 38 1013.5
20260905214022 26 357 6.4 12.9 0.00 0.03 0.03 36 1013.9
20260905213036 26 265 6.4 12.9 0.00 0.03 0.03 38 1013.8
20260905212032 26 239 6.4 16.1 0.00 0.03 0.03 37 1013.9
20260905211029 26 254 4.8 11.3 0.00 0.03 0.03 38 1014.0
20260905210026 26 65 1.6 12.9 0.00 0.03 0.03 38 1014.1
20260905205007 25 182 3.2 11.3 0.00 0.03 0.03 38 1014.1
20260905204025 26 192 6.4 16.1 0.00 0.03 0.03 37 1014.1
20260905203021 26 103 1.6 12.9 0.00 0.03 0.03 38 1014.2
20260905202018 26 89 6.4 12.9 0.00 0.03 0.03 38 1014.2
20260905201019 25 260 1.6 8.0 0.00 0.03 0.03 40 1014.3
20260905200011 25 192 3.2 6.4 0.00 0.03 0.03 40 1014.4
20260905195010 25 260 8.0 16.1 0.00 0.03 0.03 41 1014.5
20260905194013 25 120 3.2 12.9 0.00 0.03 0.03 44 1014.5
20260905193010 24 66 1.6 9.7 0.00 0.03 0.03 43 1014.6
20260905192028 25 236 3.2 11.3 0.00 0.03 0.03 47 1014.6
20260905191007 23 360 6.4 12.9 0.00 0.03 0.03 48 1014.8
20260905190041 23 278 4.8 12.9 0.00 0.03 0.03 45 1015.0
20260905185019 23 16 3.2 9.7 0.00 0.03 0.03 49 1015.0
20260905184016 23 201 6.4 12.9 0.00 0.03 0.03 50 1014.9
20260905183009 23 220 4.8 12.9 0.00 0.03 0.03 51 1015.0
20260905182015 23 54 1.6 9.7 0.00 0.03 0.03 55 1015.0
20260905181017 22 255 3.2 9.7 0.00 0.03 0.03 53 1015.0
20260905180021 22 279 1.6 9.7 0.00 0.03 0.03 55 1014.9
20260905175035 22 73 3.2 9.7 0.00 0.03 0.03 54 1014.8
20260905174016 22 249 4.8 8.0 0.03 0.03 0.03 56 1014.8
20260905173010 22 150 0.0 8.0 0.03 0.03 0.03 56 1014.8
20260905172007 21 87 1.6 8.0 0.03 0.03 0.03 58 1014.8
20260905171021 21 73 3.2 9.7 0.03 0.03 0.03 60 1014.8
20260905170023 20 186 4.8 9.7 0.03 0.03 0.03 63 1014.8
20260905165015 20 30 1.6 9.7 0.03 0.03 0.03 63 1014.7
20260905164036 19 260 1.6 4.8 0.00 0.00 0.00 65 1014.7
20260905163016 19 200 4.8 9.7 0.00 0.00 0.00 65 1014.7
20260905162014 18 127 4.8 6.4 0.00 0.00 0.00 66 1014.8
20260905161015 18 91 3.2 6.4 0.00 0.00 0.00 67 1014.8
20260905160013 18 176 0.0 4.8 0.00 0.00 0.00 68 1014.8
20260905155012 17 191 3.2 4.8 0.00 0.00 0.00 69 1014.8
20260905154012 17 226 3.2 6.4 0.00 0.00 0.00 70 1014.8
20260905153028 17 189 1.6 8.0 0.00 0.00 0.00 72 1014.9
20260905152024 16 108 3.2 8.0 0.00 0.00 0.00 74 1014.8
20260905151026 15 126 3.2 6.4 0.00 0.00 0.00 79 1014.7
20260905150008 14 105 4.8 6.4 0.00 0.00 0.00 84 1014.7
20260905145047 13 80 1.6 4.8 0.00 0.00 0.00 85 1014.7
20260905144026 12 93 1.6 4.8 0.00 0.00 0.00 87 1014.7
20260905143006 12 97 0.0 0.0 0.00 0.00 0.00 86 1014.6
20260905142005 12 110 0.0 1.6 0.00 0.00 0.00 86 1014.5
20260905141009 12 111 0.0 3.2 0.00 0.00 0.00 86 1014.4
20260905140034 12 121 0.0 1.6 0.00 0.00 0.00 86 1014.3
20260905135009 12 122 0.0 1.6 0.00 0.00 0.00 86 1014.3
20260905134013 11 134 0.0 1.6 0.00 0.00 0.00 85 1014.3
20260905133015 11 134 0.0 1.6 0.00 0.00 0.00 84 1014.3
20260905132013 12 134 0.0 0.0 0.00 0.00 0.00 83 1014.3
20260905131013 12 134 0.0 0.0 0.00 0.00 0.00 83 1014.3
20260905130015 12 134 0.0 0.0 0.00 0.00 0.00 82 1014.1
20260905125014 12 134 0.0 3.2 0.00 0.00 0.00 81 1014.2
20260905124023 12 127 0.0 3.2 0.00 0.00 0.00 81 1014.0
20260905123025 12 115 1.6 3.2 0.00 0.00 0.00 81 1014.0
20260905122023 13 114 1.6 6.4 0.00 0.00 0.00 81 1014.1
20260905121040 13 130 1.6 4.8 0.00 0.00 0.00 80 1014.1
20260905120022 13 137 1.6 3.2 0.00 0.00 0.00 79 1014.2
20260905115023 13 151 1.6 4.8 0.00 0.00 0.00 79 1014.2
20260905114019 13 132 3.2 4.8 0.00 0.00 0.00 79 1014.2
20260905113023 13 112 3.2 4.8 0.00 0.00 0.00 78 1014.1
20260905112026 13 112 3.2 9.7 0.00 0.00 0.00 78 1014.3
20260905111005 13 116 3.2 6.4 0.00 0.00 0.00 77 1014.3
20260905110008 13 104 3.2 6.4 0.00 0.00 0.00 77 1014.3
20260905105012 13 126 4.8 6.4 0.00 0.00 0.00 77 1014.3
20260905104009 13 119 3.2 6.4 0.00 0.00 0.00 77 1014.4
20260905103014 13 112 3.2 4.8 0.00 0.00 0.00 77 1014.4
20260905102015 13 100 1.6 4.8 0.00 0.00 0.00 77 1014.6
20260905101021 13 100 0.0 3.2 0.00 0.00 0.00 76 1014.6
20260905100039 13 102 1.6 4.8 0.00 0.00 0.00 77 1014.5
20260905095022 13 120 3.2 6.4 0.00 0.00 0.00 77 1014.6
20260905094025 13 124 1.6 4.8 0.00 0.00 0.00 77 1014.6
20260905093021 13 110 1.6 4.8 0.00 0.00 0.00 76 1014.5
20260905092046 14 130 0.0 0.0 0.00 0.00 0.00 76 1014.4
20260905091005 14 121 0.0 0.0 0.00 0.00 0.00 75 1014.4
20260905090024 14 116 0.0 0.0 0.00 0.00 0.00 74 1014.4
20260905085011 14 117 0.0 0.0 0.00 0.03 0.00 74 1014.4
20260905084008 15 117 0.0 4.8 0.00 0.03 0.00 73 1014.5
20260905083028 15 116 3.2 4.8 0.00 0.03 0.00 72 1014.5
20260905082027 15 137 0.0 3.2 0.00 0.03 0.00 71 1014.6
20260905081011 15 145 1.6 4.8 0.00 0.03 0.00 70 1014.6
20260905080012 15 130 3.2 6.4 0.00 0.03 0.00 69 1014.4
20260905075012 15 132 3.2 8.0 0.00 0.08 0.00 69 1014.3
20260905074035 16 129 4.8 8.0 0.00 0.08 0.00 68 1014.2
20260905073016 16 134 3.2 6.4 0.00 0.08 0.00 68 1014.1
20260905072020 16 144 1.6 4.8 0.00 0.08 0.00 67 1014.1
20260905071011 16 126 0.0 3.2 0.00 0.08 0.00 67 1014.1
20260905070019 16 130 3.2 6.4 0.00 0.08 0.00 66 1014.1
20260905065021 16 113 3.2 8.0 0.00 0.08 0.08 66 1014.0
20260905064018 16 105 4.8 9.7 0.00 0.08 0.08 66 1014.0
20260905063016 17 128 3.2 6.4 0.00 0.08 0.08 66 1013.9
20260905062010 17 127 3.2 6.4 0.00 0.08 0.08 67 1013.9
20260905061026 17 114 3.2 6.4 0.00 0.08 0.08 66 1014.0
20260905060026 17 110 3.2 6.4 0.00 0.08 0.08 66 1014.1
20260905055020 17 88 3.2 6.4 0.00 0.08 0.08 66 1014.1
20260905054017 17 124 0.0 0.0 0.00 0.08 0.08 65 1014.0
20260905053013 17 124 0.0 3.2 0.00 0.08 0.08 64 1014.1
20260905052026 17 123 1.6 3.2 0.00 0.08 0.08 64 1014.1
20260905051046 18 124 1.6 3.2 0.00 0.08 0.08 63 1014.0
20260905050024 18 188 0.0 4.8 0.00 0.08 0.08 62 1014.0
20260905045020 18 183 3.2 8.0 0.00 0.08 0.08 61 1014.0
20260905044018 18 178 3.2 9.7 0.00 0.08 0.08 60 1014.0
20260905043018 19 174 3.2 6.4 0.00 0.08 0.08 59 1013.9
20260905042012 19 195 3.2 8.0 0.00 0.08 0.08 58 1013.9
20260905041013 20 172 3.2 6.4 0.00 0.08 0.08 56 1013.5
20260905040013 20 260 1.6 6.4 0.00 0.08 0.08 54 1013.4
20260905035011 20 170 1.6 6.4 0.00 0.08 0.08 52 1013.3
20260905034012 20 236 1.6 8.0 0.00 0.08 0.08 50 1013.3
20260905033017 20 213 4.8 19.3 0.00 0.08 0.08 45 1013.1
20260905032014 21 177 3.2 6.4 0.00 0.08 0.08 43 1013.0
20260905031016 21 199 3.2 8.0 0.00 0.08 0.08 42 1012.8
20260905030039 21 197 3.2 9.7 0.00 0.08 0.08 40 1012.8
20260905025008 22 180 3.2 9.7 0.00 0.08 0.08 38 1012.8
20260905024030 22 170 3.2 11.3 0.00 0.08 0.08 38 1012.7
20260905023009 22 195 3.2 8.0 0.00 0.08 0.08 38 1012.7
20260905022025 23 162 3.2 8.0 0.00 0.08 0.08 38 1012.6
20260905021026 23 184 1.6 9.7 0.00 0.08 0.08 39 1012.6
20260905020008 23 232 6.4 12.9 0.00 0.08 0.08 38 1012.6
20260905015043 24 245 4.8 12.9 0.00 0.08 0.08 37 1012.6
20260905014022 25 243 4.8 14.5 0.00 0.08 0.08 38 1012.7